STARLINK-11565, 62912

Orbit data source: Space-Track

STARLINK-11565, 62912 is a payload satellite owned by SpaceX/Seattle (US) in LEO that was launched on Sat, 08 Feb 2025 UTC via an FALCON 9 launch vehicle from the Air Force Eastern Test Range (AFETR). Payload-class satellites include a variety of spacecraft equipped with specific instruments for various scientific and technological missions. These include communications satellites like Starlink; space stations such as the ISS; scientific satellites like the Hubble; Earth observation satellites from companies like Planet Labs, Umbra, and HawkEye 360; GPS; miniature CubeSats for education and research; and military/defense satellites.

Loading next visibility...
Identifier
62912, 2025-027F
Orbit
LEO
Country
Flag of USUS
Related business
Manufacturer
SpaceX/Seattle
Mission
Operational Commercial Communications
Bus & Motor
STARLINK V2MD, Unknown motor
Mass
960 kg wet, ~910 kg dry
Launch date (UTC)
2025-02-08 (10 months ago)
Launch vehicle
FALCON 9
Launch site
Air Force Eastern Test Range (AFETR)
Object type
Payload
Rocket body
Debris
Shape & HBR
Box + 2 Pan, 18.1 m
Radar Cross Section
36.964 m², Large (>1 m²)

Expand to show TLE details & history
Last TLE update: 16 hours ago

TLE from 16 hours ago
0 STARLINK-11565
1 62912U 25027F   25347.57850033  .00255004  00000-0  19134-2 0  9994
2 62912  42.9972 146.3057 0001823 253.2357 106.8311 15.71051928 49611
Epoch: 2025-12-13T13:53Z
TLE epoch observation values (Epoch: 2025-12-13T13:53:02.428Z)
Latitude
-0°
Longitude
-144.45817°
Altitude
356.016 km
Speed
7.697 km/s
True Right ascension
09h 45m 13s
True Declination
0° 00' 00"
Sunlit
Object was in full shadow at epoch
Visualization orbit readout
Latitude
Unknown
Longitude
Unknown
Altitude
Unknown
Speed
Unknown
Apparent Right ascension
Unknown
Apparent Declination
Unknown
Sunlit
N/A
Visualization observer readout
Local Sidereal Time
04:17:26
Azimuth
Unknown
Elevation
Unknown
Doppler factor
Unknown
Orbital elements
Apogee altitude
359.1 km
Perigee altitude
356.644 km
Semi-major axis
6,736.009 km
Eccentricity
0.00018
Inclination
42.9972°
RAAN
146.3057°
Arg. of periapsis
253.2357°
True anomaly
106.85109°
Mean anomaly
106.8311°
Eccentric anomaly
106.8411°
Mean motion
3.9259 °/min
Orbital period
91.7 mins
BSTAR
0.0019134
Loading maneuver chart data...
Computing Atmospheric mass density...
Loading historical data...
Loading historical data...
Loading historical data...
Loading historical data...
Loading historical data...
Loading historical data...
Loading historical data...

Documentation

Showing up to 5 results
|